Time,TemperatureF,DewpointF,PressureIn,WindDirection,WindDirectionDegrees,WindSpeedMPH,WindSpeedGustMPH,Humidity,HourlyPrecipIn,Conditions,Clouds,dailyrainin,SoftwareType,DateUTC
2013-12-22 00:01:00,59.6,55.4,29.69,SSW,199,20.0,20.0,86,0.00,CLR,,0.53,WeatherDisplay:10.37,2013-12-22 05:01:00,
2013-12-22 00:02:00,59.6,55.4,29.69,SW,219,18.4,18.4,86,0.00,RA,,0.00,WeatherDisplay:10.37,2013-12-22 05:02:00,
2013-12-22 00:07:00,59.7,55.5,29.69,SSW,202,18.0,18.0,86,0.00,RA,,0.00,WeatherDisplay:10.37,2013-12-22 05:07:00,
2013-12-22 00:12:00,59.8,55.6,29.69,SW,214,19.6,19.6,86,0.00,CLR,,0.00,WeatherDisplay:10.37,2013-12-22 05:12:00,
2013-12-22 00:17:00,60.0,55.8,29.68,SSW,205,20.0,20.0,86,0.00,CLR,,0.00,WeatherDisplay:10.37,2013-12-22 05:17:00,
2013-12-22 00:22:00,60.2,56.0,29.68,SSW,205,19.6,19.6,86,0.00,CLR,,0.00,WeatherDisplay:10.37,2013-12-22 05:22:00,
2013-12-22 00:27:00,60.5,56.3,29.68,SSW,204,20.0,20.0,86,0.00,CLR,,0.00,WeatherDisplay:10.37,2013-12-22 05:27:00,
2013-12-22 00:32:00,60.9,56.4,29.67,SSW,200,19.6,19.6,85,0.00,CLR,,0.00,WeatherDisplay:10.37,2013-12-22 05:32:00,
2013-12-22 00:37:00,61.1,56.2,29.67,SSW,213,22.0,22.0,84,0.00,CLR,,0.00,WeatherDisplay:10.37,2013-12-22 05:37:00,
2013-12-22 00:42:00,61.4,56.5,29.67,SSW,196,20.0,20.0,84,0.00,CLR,,0.00,WeatherDisplay:10.37,2013-12-22 05:42:00,
2013-12-22 00:47:00,61.7,56.5,29.66,SSW,205,22.0,22.0,83,0.00,CLR,,0.00,WeatherDisplay:10.37,2013-12-22 05:47:00,
2013-12-22 00:50:00,60.0,52.1,29.82,SW,227,23.0,28.0,75,0.00,RA,RA,0.18,WeatherDisplay:10.37,2013-12-22 05:50:00,
2013-12-22 00:52:00,62.0,56.4,29.65,SSW,205,23.0,23.0,82,0.00,CLR,,0.00,WeatherDisplay:10.37,2013-12-22 05:52:00,
2013-12-22 00:55:00,60.0,52.1,29.81,SW,229,24.0,34.0,75,0.00,RA,RA,0.18,WeatherDisplay:10.37,2013-12-22 05:55:00,
2013-12-22 00:57:00,62.2,56.3,29.65,SSW,199,21.0,21.0,81,0.00,CLR,,0.00,WeatherDisplay:10.37,2013-12-22 05:57:00,
2013-12-22 01:00:00,60.0,52.1,29.82,SW,227,26.0,34.0,75,0.00,CLR,CLR,0.18,WeatherDisplay:10.37,2013-12-22 06:00:00,
2013-12-22 01:02:00,62.5,56.2,29.64,SSW,211,18.4,18.4,80,0.00,CLR,,0.00,WeatherDisplay:10.37,2013-12-22 06:02:00,
2013-12-22 01:05:00,59.9,52.0,29.82,SW,225,24.0,29.0,75,0.00,CLR,CLR,0.18,WeatherDisplay:10.37,2013-12-22 06:05:00,
2013-12-22 01:07:00,62.8,56.2,29.64,SSW,213,27.0,27.0,79,0.00,CLR,,0.00,WeatherDisplay:10.37,2013-12-22 06:07:00,
2013-12-22 01:10:00,59.7,52.1,29.83,SW,227,24.0,32.0,76,0.00,CLR,CLR,0.18,WeatherDisplay:10.37,2013-12-22 06:10:00,
2013-12-22 01:12:00,63.3,56.3,29.63,SSW,204,29.0,29.0,78,0.00,CLR,,0.00,WeatherDisplay:10.37,2013-12-22 06:12:00,
2013-12-22 01:15:00,59.5,51.9,29.83,SW,227,22.0,35.0,76,0.00,CLR,CLR,0.18,WeatherDisplay:10.37,2013-12-22 06:15:00,
2013-12-22 01:17:00,63.9,56.5,29.63,SSW,211,22.0,22.0,77,0.00,CLR,,0.00,WeatherDisplay:10.37,2013-12-22 06:17:00,
2013-12-22 01:22:00,64.3,56.2,29.63,SW,226,24.2,24.2,75,0.00,CLR,,0.00,WeatherDisplay:10.37,2013-12-22 06:22:00,
2013-12-22 01:27:00,64.8,56.7,29.62,SW,225,28.0,28.0,75,0.00,CLR,,0.00,WeatherDisplay:10.37,2013-12-22 06:27:00,
2013-12-22 01:32:00,65.2,56.7,29.62,SW,214,29.0,29.0,74,0.00,CLR,,0.00,WeatherDisplay:10.37,2013-12-22 06:32:00,
2013-12-22 01:37:00,65.6,56.7,29.61,SSW,213,29.9,29.9,73,0.00,CLR,,0.00,WeatherDisplay:10.37,2013-12-22 06:37:00,
2013-12-22 01:42:00,65.8,56.5,29.61,SSW,212,20.0,20.0,72,0.00,CLR,,0.00,WeatherDisplay:10.37,2013-12-22 06:42:00,
2013-12-22 01:47:00,66.0,56.3,29.61,SW,233,31.1,31.1,71,0.00,CLR,,0.00,WeatherDisplay:10.37,2013-12-22 06:47:00,
2013-12-22 01:52:00,66.4,56.7,29.60,SSW,209,21.0,21.0,71,0.00,CLR,,0.00,WeatherDisplay:10.37,2013-12-22 06:52:00,
2013-12-22 01:55:00,59.0,52.5,29.84,SW,229,22.0,28.0,79,0.00,CLR,CLR,0.18,WeatherDisplay:10.37,2013-12-22 06:55:00,
2013-12-22 01:57:00,66.5,56.4,29.61,SW,219,22.0,22.0,70,0.00,CLR,,0.00,WeatherDisplay:10.37,2013-12-22 06:57:00,
2013-12-22 01:59:00,66.5,56.4,29.61,SSW,206,30.0,30.0,70,0.00,CLR,,0.00,WeatherDisplay:10.37,2013-12-22 06:59:00,
2013-12-22 02:00:00,59.0,52.5,29.84,SW,230,26.0,31.0,79,0.00,CLR,CLR,0.18,WeatherDisplay:10.37,2013-12-22 07:00:00,
2013-12-22 02:04:00,66.7,56.6,29.60,SSW,210,27.6,27.6,70,0.00,CLR,,0.00,WeatherDisplay:10.37,2013-12-22 07:04:00,
2013-12-22 02:05:00,59.0,52.1,29.84,SW,227,18.0,33.0,78,0.00,CLR,CLR,0.18,WeatherDisplay:10.37,2013-12-22 07:05:00,
2013-12-22 02:09:00,66.9,56.4,29.60,SW,217,34.0,34.0,69,0.00,CLR,,0.00,WeatherDisplay:10.37,2013-12-22 07:09:00,
2013-12-22 02:10:00,59.0,52.1,29.84,SW,225,22.0,30.0,78,0.00,CLR,CLR,0.18,WeatherDisplay:10.37,2013-12-22 07:10:00,
2013-12-22 02:14:00,67.3,56.8,29.60,SW,225,26.5,26.5,69,0.00,CLR,,0.00,WeatherDisplay:10.37,2013-12-22 07:14:00,
2013-12-22 02:15:00,59.1,51.9,29.84,SW,227,20.0,26.0,77,0.00,CLR,CLR,0.18,WeatherDisplay:10.37,2013-12-22 07:15:00,
2013-12-22 02:19:00,67.3,56.4,29.60,SSW,202,26.5,26.5,68,0.00,CLR,,0.00,WeatherDisplay:10.37,2013-12-22 07:19:00,
2013-12-22 02:20:00,59.2,52.0,29.84,SW,227,15.0,24.0,77,0.00,CLR,CLR,0.18,WeatherDisplay:10.37,2013-12-22 07:20:00,
2013-12-22 02:24:00,67.4,56.5,29.60,South,191,24.0,24.0,68,0.00,CLR,,0.00,WeatherDisplay:10.37,2013-12-22 07:24:00,
2013-12-22 02:25:00,59.2,52.3,29.84,SW,225,22.0,27.0,78,0.00,CLR,CLR,0.18,WeatherDisplay:10.37,2013-12-22 07:25:00,
2013-12-22 02:29:00,67.6,56.7,29.61,SW,219,28.8,28.8,68,0.00,CLR,,0.00,WeatherDisplay:10.37,2013-12-22 07:29:00,
2013-12-22 02:30:00,59.2,52.0,29.85,SW,225,20.0,27.0,77,0.00,CLR,CLR,0.18,WeatherDisplay:10.37,2013-12-22 07:30:00,
2013-12-22 02:34:00,67.9,56.5,29.62,SW,234,34.5,34.5,67,0.00,,,0.00,WeatherDisplay:10.37,2013-12-22 07:34:00,
2013-12-22 02:35:00,59.0,52.1,29.85,SW,227,26.0,32.0,78,0.00,CLR,CLR,0.18,WeatherDisplay:10.37,2013-12-22 07:35:00,
2013-12-22 02:39:00,68.4,57.0,29.63,SW,221,30.0,30.0,67,0.00,,,0.00,WeatherDisplay:10.37,2013-12-22 07:39:00,
2013-12-22 02:40:00,59.0,51.8,29.85,SW,227,21.0,35.0,77,0.00,CLR,CLR,0.18,WeatherDisplay:10.37,2013-12-22 07:40:00,
2013-12-22 02:44:00,68.4,57.0,29.63,SW,229,29.0,29.0,67,0.00,CLR,,0.00,WeatherDisplay:10.37,2013-12-22 07:44:00,
2013-12-22 02:45:00,59.0,51.8,29.84,SW,225,20.0,27.0,77,0.00,CLR,CLR,0.18,WeatherDisplay:10.37,2013-12-22 07:45:00,
2013-12-22 02:49:00,68.6,56.8,29.63,South,188,34.5,34.5,66,0.00,CLR,,0.00,WeatherDisplay:10.37,2013-12-22 07:49:00,
2013-12-22 02:50:00,59.0,51.8,29.85,SW,225,17.0,25.0,77,0.00,CLR,CLR,0.18,WeatherDisplay:10.37,2013-12-22 07:50:00,
2013-12-22 02:54:00,68.8,57.0,29.66,WSW,244,25.0,25.0,66,0.00,,,0.00,WeatherDisplay:10.37,2013-12-22 07:54:00,
2013-12-22 02:59:00,66.8,57.5,29.72,West,264,42.6,42.6,72,0.01,RA,,0.01,WeatherDisplay:10.37,2013-12-22 07:59:00,
2013-12-22 03:04:00,64.4,56.7,29.72,West,261,38.0,38.0,76,0.02,RA,,0.02,WeatherDisplay:10.37,2013-12-22 08:04:00,
2013-12-22 03:09:00,63.0,56.0,29.74,West,265,36.0,36.0,78,0.03,RA,,0.03,WeatherDisplay:10.37,2013-12-22 08:09:00,
2013-12-22 03:14:00,62.1,55.9,29.74,WSW,244,32.2,32.2,80,0.04,RA,,0.04,WeatherDisplay:10.37,2013-12-22 08:14:00,
2013-12-22 03:19:00,61.6,55.7,29.74,WSW,257,28.0,28.0,81,0.04,RA,,0.04,WeatherDisplay:10.37,2013-12-22 08:19:00,
2013-12-22 03:24:00,61.3,55.8,29.75,West,268,29.0,29.0,82,0.05,RA,,0.05,WeatherDisplay:10.37,2013-12-22 08:24:00,
2013-12-22 03:29:00,61.2,55.7,29.75,WSW,258,27.0,27.0,82,0.05,RA,,0.05,WeatherDisplay:10.37,2013-12-22 08:29:00,
2013-12-22 03:34:00,61.0,55.8,29.75,WSW,245,27.0,27.0,83,0.05,,,0.05,WeatherDisplay:10.37,2013-12-22 08:34:00,
2013-12-22 03:39:00,61.0,55.5,29.75,West,264,29.9,29.9,82,0.05,CLR,,0.05,WeatherDisplay:10.37,2013-12-22 08:39:00,
2013-12-22 03:44:00,60.9,55.7,29.76,WSW,250,28.0,28.0,83,0.05,CLR,,0.05,WeatherDisplay:10.37,2013-12-22 08:44:00,
2013-12-22 03:49:00,60.9,55.7,29.76,West,260,32.2,32.2,83,0.05,CLR,,0.05,WeatherDisplay:10.37,2013-12-22 08:49:00,
2013-12-22 03:54:00,60.8,55.6,29.77,West,259,25.0,25.0,83,0.05,CLR,,0.05,WeatherDisplay:10.37,2013-12-22 08:54:00,
2013-12-22 03:59:00,60.8,55.6,29.78,WSW,256,27.0,27.0,83,0.04,CLR,,0.05,WeatherDisplay:10.37,2013-12-22 08:59:00,
2013-12-22 04:04:00,60.8,55.6,29.78,WSW,252,22.0,22.0,83,0.03,CLR,,0.05,WeatherDisplay:10.37,2013-12-22 09:04:00,
2013-12-22 04:09:00,60.7,55.5,29.78,WSW,246,23.0,23.0,83,0.02,CLR,,0.05,WeatherDisplay:10.37,2013-12-22 09:09:00,
2013-12-22 04:14:00,60.7,55.5,29.79,West,263,19.0,19.0,83,0.01,CLR,,0.05,WeatherDisplay:10.37,2013-12-22 09:14:00,
2013-12-22 04:19:00,60.8,55.9,29.80,West,261,23.0,23.0,84,0.01,CLR,,0.05,WeatherDisplay:10.37,2013-12-22 09:19:00,
2013-12-22 04:24:00,60.9,56.0,29.80,West,263,22.0,22.0,84,0.01,CLR,,0.05,WeatherDisplay:10.37,2013-12-22 09:24:00,
2013-12-22 04:29:00,60.9,55.7,29.80,West,260,24.2,24.2,83,0.00,CLR,,0.05,WeatherDisplay:10.37,2013-12-22 09:29:00,
2013-12-22 04:34:00,60.9,55.7,29.80,WSW,244,20.0,20.0,83,0.00,CLR,,0.05,WeatherDisplay:10.37,2013-12-22 09:34:00,
2013-12-22 04:39:00,60.9,55.7,29.80,WSW,246,19.6,19.6,83,0.00,CLR,,0.05,WeatherDisplay:10.37,2013-12-22 09:39:00,
2013-12-22 04:44:00,60.8,55.6,29.80,WSW,238,18.4,18.4,83,0.00,CLR,,0.05,WeatherDisplay:10.37,2013-12-22 09:44:00,
2013-12-22 04:49:00,60.7,55.5,29.79,WSW,245,15.0,15.0,83,0.00,CLR,,0.05,WeatherDisplay:10.37,2013-12-22 09:49:00,
2013-12-22 04:54:00,60.6,55.4,29.79,WSW,238,16.1,16.1,83,0.00,CLR,,0.05,WeatherDisplay:10.37,2013-12-22 09:54:00,
2013-12-22 04:59:00,60.5,55.3,29.79,WSW,246,14.0,14.0,83,0.00,CLR,,0.05,WeatherDisplay:10.37,2013-12-22 09:59:00,
2013-12-22 05:04:00,60.4,55.2,29.79,WSW,238,15.0,15.0,83,0.00,CLR,,0.05,WeatherDisplay:10.37,2013-12-22 10:04:00,
2013-12-22 05:09:00,60.3,55.1,29.80,SW,222,17.0,17.0,83,0.00,CLR,,0.05,WeatherDisplay:10.37,2013-12-22 10:09:00,
2013-12-22 05:14:00,60.2,55.3,29.80,West,261,16.0,16.0,84,0.00,CLR,,0.05,WeatherDisplay:10.37,2013-12-22 10:14:00,
2013-12-22 05:19:00,60.2,55.3,29.81,SW,230,14.0,14.0,84,0.00,CLR,,0.05,WeatherDisplay:10.37,2013-12-22 10:19:00,
2013-12-22 05:24:00,60.1,55.2,29.81,WSW,241,13.8,13.8,84,0.00,CLR,,0.05,WeatherDisplay:10.37,2013-12-22 10:24:00,
2013-12-22 05:29:00,60.0,55.2,29.81,WSW,238,13.8,13.8,84,0.00,CLR,,0.05,WeatherDisplay:10.37,2013-12-22 10:29:00,
2013-12-22 05:34:00,60.0,55.2,29.82,WSW,237,15.0,15.0,84,0.00,CLR,,0.05,WeatherDisplay:10.37,2013-12-22 10:34:00,
2013-12-22 05:39:00,59.9,55.1,29.81,SW,223,13.8,13.8,84,0.00,CLR,,0.05,WeatherDisplay:10.37,2013-12-22 10:39:00,
2013-12-22 05:44:00,59.9,55.1,29.81,SSW,205,11.5,11.5,84,0.00,CLR,,0.05,WeatherDisplay:10.37,2013-12-22 10:44:00,
2013-12-22 05:49:00,59.7,54.9,29.81,SSW,204,11.5,11.5,84,0.00,CLR,,0.05,WeatherDisplay:10.37,2013-12-22 10:49:00,
2013-12-22 05:54:00,59.6,54.8,29.82,SW,223,11.5,11.5,84,0.00,CLR,,0.05,WeatherDisplay:10.37,2013-12-22 10:54:00,
2013-12-22 05:59:00,59.5,54.7,29.82,SSW,210,13.0,13.0,84,0.00,CLR,,0.05,WeatherDisplay:10.37,2013-12-22 10:59:00,
2013-12-22 06:04:00,59.5,54.7,29.82,SW,218,13.8,13.8,84,0.00,CLR,,0.05,WeatherDisplay:10.37,2013-12-22 11:04:00,
2013-12-22 06:09:00,59.4,54.6,29.83,SW,223,15.0,15.0,84,0.00,CLR,,0.05,WeatherDisplay:10.37,2013-12-22 11:09:00,
2013-12-22 06:14:00,59.3,54.5,29.82,SSW,209,12.0,12.0,84,0.00,CLR,,0.05,WeatherDisplay:10.37,2013-12-22 11:14:00,
2013-12-22 06:19:00,59.3,54.5,29.83,SSW,211,13.0,13.0,84,0.00,CLR,,0.05,WeatherDisplay:10.37,2013-12-22 11:19:00,
2013-12-22 06:24:00,59.1,54.3,29.83,SW,217,14.0,14.0,84,0.00,CLR,,0.05,WeatherDisplay:10.37,2013-12-22 11:24:00,
2013-12-22 06:29:00,59.1,54.3,29.84,SSW,199,17.3,17.3,84,0.01,RA,,0.06,WeatherDisplay:10.37,2013-12-22 11:29:00,
2013-12-22 06:34:00,59.0,54.2,29.84,SSW,211,14.0,14.0,84,0.01,RA,,0.06,WeatherDisplay:10.37,2013-12-22 11:34:00,
2013-12-22 06:39:00,59.0,54.2,29.84,SSW,210,19.0,19.0,84,0.01,,,0.06,WeatherDisplay:10.37,2013-12-22 11:39:00,
2013-12-22 06:44:00,59.0,54.2,29.84,SSW,207,16.1,16.1,84,0.01,CLR,,0.06,WeatherDisplay:10.37,2013-12-22 11:44:00,
2013-12-22 06:49:00,59.0,54.2,29.85,SW,223,17.3,17.3,84,0.01,CLR,,0.06,WeatherDisplay:10.37,2013-12-22 11:49:00,
2013-12-22 06:54:00,59.0,54.2,29.85,SSW,206,14.0,14.0,84,0.01,CLR,,0.06,WeatherDisplay:10.37,2013-12-22 11:54:00,
2013-12-22 06:59:00,59.0,54.5,29.86,WSW,238,17.3,17.3,85,0.01,CLR,,0.06,WeatherDisplay:10.37,2013-12-22 11:59:00,
2013-12-22 07:04:00,59.0,54.5,29.87,SW,216,13.8,13.8,85,0.01,CLR,,0.06,WeatherDisplay:10.37,2013-12-22 12:04:00,
2013-12-22 07:09:00,59.0,54.5,29.88,SW,215,21.0,21.0,85,0.02,RA,,0.07,WeatherDisplay:10.37,2013-12-22 12:09:00,
2013-12-22 07:14:00,59.0,54.5,29.88,SW,223,17.3,17.3,85,0.02,RA,,0.07,WeatherDisplay:10.37,2013-12-22 12:14:00,
2013-12-22 07:19:00,59.0,54.5,29.89,WSW,252,15.0,15.0,85,0.02,CLR,,0.07,WeatherDisplay:10.37,2013-12-22 12:19:00,
2013-12-22 07:24:00,59.0,54.5,29.89,SW,233,12.7,12.7,85,0.02,CLR,,0.07,WeatherDisplay:10.37,2013-12-22 12:24:00,
2013-12-22 07:29:00,59.0,54.5,29.89,SW,219,23.0,23.0,85,0.02,RA,,0.08,WeatherDisplay:10.37,2013-12-22 12:29:00,
2013-12-22 07:34:00,59.0,54.5,29.88,SSW,209,21.0,21.0,85,0.02,RA,,0.08,WeatherDisplay:10.37,2013-12-22 12:34:00,
2013-12-22 07:39:00,59.0,54.5,29.88,South,182,24.0,24.0,85,0.03,RA,,0.09,WeatherDisplay:10.37,2013-12-22 12:39:00,
2013-12-22 07:44:00,59.0,54.5,29.87,SSW,200,24.2,24.2,85,0.03,RA,,0.10,WeatherDisplay:10.37,2013-12-22 12:44:00,
2013-12-22 07:49:00,59.0,54.5,29.87,South,172,18.4,18.4,85,0.04,RA,,0.10,WeatherDisplay:10.37,2013-12-22 12:49:00,
2013-12-22 07:54:00,59.0,54.5,29.86,SSW,211,24.2,24.2,85,0.04,RA,,0.10,WeatherDisplay:10.37,2013-12-22 12:54:00,
2013-12-22 07:59:00,59.0,54.5,29.87,SSW,201,21.0,21.0,85,0.04,CLR,,0.10,WeatherDisplay:10.37,2013-12-22 12:59:00,
2013-12-22 08:04:00,59.0,54.5,29.87,SSW,211,26.5,26.5,85,0.05,RA,,0.11,WeatherDisplay:10.37,2013-12-22 13:04:00,
2013-12-22 08:09:00,59.0,54.8,29.86,SSW,203,22.0,22.0,86,0.05,RA,,0.12,WeatherDisplay:10.37,2013-12-22 13:09:00,
2013-12-22 08:14:00,59.0,54.8,29.86,SSW,206,26.0,26.0,86,0.05,RA,,0.12,WeatherDisplay:10.37,2013-12-22 13:14:00,
2013-12-22 08:19:00,59.0,55.4,29.87,South,187,26.5,26.5,88,0.05,,,0.13,WeatherDisplay:10.37,2013-12-22 13:19:00,
2013-12-22 08:24:00,59.0,54.5,29.86,SW,221,27.0,27.0,85,0.06,RA,,0.13,WeatherDisplay:10.37,2013-12-22 13:24:00,
2013-12-22 08:29:00,58.9,54.4,29.86,SW,215,25.3,25.3,85,0.05,,,0.13,WeatherDisplay:10.37,2013-12-22 13:29:00,
2013-12-22 08:34:00,58.9,54.4,29.86,SSW,192,27.0,27.0,85,0.06,RA,,0.14,WeatherDisplay:10.37,2013-12-22 13:34:00,
2013-12-22 08:39:00,58.7,54.2,29.84,SSW,199,26.5,26.5,85,0.06,RA,,0.15,WeatherDisplay:10.37,2013-12-22 13:39:00,
2013-12-22 08:44:00,58.6,54.1,29.82,SSW,204,26.0,26.0,85,0.06,RA,,0.15,WeatherDisplay:10.37,2013-12-22 13:44:00,
2013-12-22 08:49:00,58.5,54.0,29.83,SW,231,22.0,22.0,85,0.06,RA,,0.16,WeatherDisplay:10.37,2013-12-22 13:49:00,
2013-12-22 08:54:00,58.4,54.2,29.82,SSE,161,27.6,27.6,86,0.06,RA,,0.16,WeatherDisplay:10.37,2013-12-22 13:54:00,
2013-12-22 08:59:00,58.3,54.1,29.81,South,188,20.0,20.0,86,0.06,CLR,,0.16,WeatherDisplay:10.37,2013-12-22 13:59:00,
2013-12-22 09:04:00,58.3,53.8,29.81,South,188,26.5,26.5,85,0.05,CLR,,0.16,WeatherDisplay:10.37,2013-12-22 14:04:00,
2013-12-22 09:09:00,58.2,53.7,29.81,SW,216,36.0,36.0,85,0.05,RA,,0.17,WeatherDisplay:10.37,2013-12-22 14:09:00,
2013-12-22 09:14:00,58.1,53.6,29.80,SSW,196,27.0,27.0,85,0.05,RA,,0.17,WeatherDisplay:10.37,2013-12-22 14:14:00,
2013-12-22 09:19:00,58.1,53.6,29.78,SW,219,33.4,33.4,85,0.05,,,0.17,WeatherDisplay:10.37,2013-12-22 14:19:00,
2013-12-22 09:24:00,58.0,53.5,29.79,SSW,212,27.0,27.0,85,0.04,CLR,,0.17,WeatherDisplay:10.37,2013-12-22 14:24:00,
2013-12-22 09:29:00,58.0,53.5,29.79,SSW,196,33.4,33.4,85,0.04,,,0.17,WeatherDisplay:10.37,2013-12-22 14:29:00,
2013-12-22 09:34:00,58.0,53.5,29.76,SW,223,42.6,42.6,85,0.03,,,0.17,WeatherDisplay:10.37,2013-12-22 14:34:00,
2013-12-22 09:39:00,58.0,53.5,29.79,SSW,198,36.0,36.0,85,0.02,,,0.17,WeatherDisplay:10.37,2013-12-22 14:39:00,
2013-12-22 09:44:00,58.0,53.2,29.74,SSW,196,39.0,39.0,84,0.03,RA,,0.18,WeatherDisplay:10.37,2013-12-22 14:44:00,
2013-12-22 09:49:00,57.9,53.1,29.69,SSW,196,44.9,44.9,84,0.02,RA,,0.18,WeatherDisplay:10.37,2013-12-22 14:49:00,
2013-12-22 09:54:00,58.0,53.2,29.75,SSW,207,26.5,26.5,84,0.02,CLR,,0.18,WeatherDisplay:10.37,2013-12-22 14:54:00,
2013-12-22 09:59:00,58.0,53.2,29.76,SSW,210,41.0,41.0,84,0.02,CLR,,0.18,WeatherDisplay:10.37,2013-12-22 14:59:00,
2013-12-22 10:04:00,58.2,53.1,29.79,SW,234,35.0,35.0,83,0.02,,,0.18,WeatherDisplay:10.37,2013-12-22 15:04:00,
2013-12-22 10:09:00,58.3,52.8,29.82,SW,223,24.2,24.2,82,0.01,CLR,,0.18,WeatherDisplay:10.37,2013-12-22 15:09:00,
2013-12-22 10:14:00,58.4,52.9,29.82,SW,227,22.0,22.0,82,0.01,CLR,,0.18,WeatherDisplay:10.37,2013-12-22 15:14:00,
2013-12-22 10:19:00,58.6,53.1,29.82,SSW,207,29.0,29.0,82,0.01,,,0.18,WeatherDisplay:10.37,2013-12-22 15:19:00,
2013-12-22 10:24:00,58.7,52.9,29.82,SW,215,34.5,34.5,81,0.01,,,0.18,WeatherDisplay:10.37,2013-12-22 15:24:00,
2013-12-22 10:29:00,58.8,53.0,29.83,SW,219,26.0,26.0,81,0.01,CLR,,0.18,WeatherDisplay:10.37,2013-12-22 15:29:00,
2013-12-22 10:34:00,59.0,52.8,29.83,SSW,203,27.6,27.6,80,0.01,,,0.18,WeatherDisplay:10.37,2013-12-22 15:34:00,
2013-12-22 10:39:00,59.0,52.5,29.83,SW,227,26.0,26.0,79,0.01,CLR,,0.18,WeatherDisplay:10.37,2013-12-22 15:39:00,
2013-12-22 10:44:00,59.0,52.5,29.83,SW,219,27.6,27.6,79,0.00,CLR,,0.18,WeatherDisplay:10.37,2013-12-22 15:44:00,
2013-12-22 10:49:00,59.0,52.1,29.82,WSW,237,30.0,30.0,78,0.00,CLR,,0.18,WeatherDisplay:10.37,2013-12-22 15:49:00,
2013-12-22 10:54:00,59.0,52.1,29.82,SW,230,26.0,26.0,78,0.00,CLR,,0.18,WeatherDisplay:10.37,2013-12-22 15:54:00,
2013-12-22 10:59:00,59.0,52.1,29.82,SW,223,27.0,27.0,78,0.00,CLR,,0.18,WeatherDisplay:10.37,2013-12-22 15:59:00,
2013-12-22 11:04:00,59.1,52.2,29.82,SW,229,32.0,32.0,78,0.00,CLR,,0.18,WeatherDisplay:10.37,2013-12-22 16:04:00,
2013-12-22 11:09:00,59.1,52.2,29.82,SW,226,26.5,26.5,78,0.00,CLR,,0.18,WeatherDisplay:10.37,2013-12-22 16:09:00,
2013-12-22 11:14:00,59.3,52.4,29.81,SW,218,21.0,21.0,78,0.00,CLR,,0.18,WeatherDisplay:10.37,2013-12-22 16:14:00,
2013-12-22 11:19:00,59.3,52.4,29.81,SSW,213,26.5,26.5,78,0.00,CLR,,0.18,WeatherDisplay:10.37,2013-12-22 16:19:00,
2013-12-22 11:24:00,59.4,52.5,29.82,SW,223,21.9,21.9,78,0.00,CLR,,0.18,WeatherDisplay:10.37,2013-12-22 16:24:00,
2013-12-22 11:29:00,59.5,52.3,29.81,WSW,240,34.5,34.5,77,0.00,,,0.18,WeatherDisplay:10.37,2013-12-22 16:29:00,
2013-12-22 11:34:00,59.6,52.4,29.82,SSW,206,21.0,21.0,77,0.00,CLR,,0.18,WeatherDisplay:10.37,2013-12-22 16:34:00,
2013-12-22 11:39:00,59.7,52.5,29.82,SW,234,25.0,25.0,77,0.00,CLR,,0.18,WeatherDisplay:10.37,2013-12-22 16:39:00,
2013-12-22 11:44:00,59.7,52.5,29.82,SSW,210,21.9,21.9,77,0.00,CLR,,0.18,WeatherDisplay:10.37,2013-12-22 16:44:00,
2013-12-22 11:49:00,59.7,52.5,29.82,SSW,209,26.0,26.0,77,0.00,CLR,,0.18,WeatherDisplay:10.37,2013-12-22 16:49:00,
2013-12-22 11:54:00,59.7,52.1,29.82,SW,236,29.0,29.0,76,0.00,CLR,,0.18,WeatherDisplay:10.37,2013-12-22 16:54:00,
2013-12-22 11:59:00,59.8,52.2,29.82,SW,227,28.8,28.8,76,0.00,CLR,,0.18,WeatherDisplay:10.37,2013-12-22 16:59:00,
2013-12-22 12:04:00,59.8,52.2,29.82,SSW,192,37.0,37.0,76,0.00,CLR,,0.18,WeatherDisplay:10.37,2013-12-22 17:04:00,
2013-12-22 12:09:00,59.9,52.0,29.82,SW,236,32.0,32.0,75,0.00,,,0.18,WeatherDisplay:10.37,2013-12-22 17:09:00,
2013-12-22 12:14:00,59.9,52.0,29.82,SW,221,26.5,26.5,75,0.00,CLR,,0.18,WeatherDisplay:10.37,2013-12-22 17:14:00,
2013-12-22 12:19:00,59.9,52.0,29.82,SW,226,23.0,23.0,75,0.00,CLR,,0.18,WeatherDisplay:10.37,2013-12-22 17:19:00,
2013-12-22 12:24:00,60.0,52.1,29.81,SW,236,31.1,31.1,75,0.00,CLR,,0.18,WeatherDisplay:10.37,2013-12-22 17:24:00,
2013-12-22 12:29:00,60.1,52.1,29.82,SW,225,30.0,30.0,75,0.00,CLR,,0.18,WeatherDisplay:10.37,2013-12-22 17:29:00,
2013-12-22 12:34:00,60.2,52.2,29.82,SSW,213,34.5,34.5,75,0.00,,,0.18,WeatherDisplay:10.37,2013-12-22 17:34:00,
2013-12-22 12:39:00,60.2,52.2,29.81,SW,229,32.2,32.2,75,0.00,CLR,,0.18,WeatherDisplay:10.37,2013-12-22 17:39:00,
2013-12-22 12:44:00,60.1,52.1,29.82,WSW,246,25.3,25.3,75,0.00,CLR,,0.18,WeatherDisplay:10.37,2013-12-22 17:44:00,
2013-12-22 13:20:00,59.0,51.8,29.83,WSW,249,29.0,29.0,77,0.00,CLR,,0.18,WeatherDisplay:10.37,2013-12-22 18:20:00,
2013-12-22 13:25:00,59.0,52.1,29.83,WSW,254,26.5,26.5,78,0.00,CLR,,0.18,WeatherDisplay:10.37,2013-12-22 18:25:00,
2013-12-22 13:30:00,59.0,52.5,29.84,SW,228,19.6,19.6,79,0.00,CLR,,0.18,WeatherDisplay:10.37,2013-12-22 18:30:00,
2013-12-22 13:35:00,58.8,52.3,29.83,SW,232,29.0,29.0,79,0.00,CLR,,0.18,WeatherDisplay:10.37,2013-12-22 18:35:00,
2013-12-22 13:40:00,58.6,52.1,29.84,SSW,206,21.9,21.9,79,0.00,CLR,,0.18,WeatherDisplay:10.37,2013-12-22 18:40:00,
2013-12-22 13:45:00,58.7,52.2,29.83,SW,221,28.8,28.8,79,0.00,CLR,,0.18,WeatherDisplay:10.37,2013-12-22 18:45:00,
2013-12-22 13:50:00,58.8,52.3,29.84,SSW,199,22.0,22.0,79,0.00,CLR,,0.18,WeatherDisplay:10.37,2013-12-22 18:50:00,
2013-12-22 14:53:00,59.0,51.8,29.85,SW,219,26.0,26.0,77,0.00,CLR,,0.18,WeatherDisplay:10.37,2013-12-22 19:53:00,
2013-12-22 14:58:00,59.0,51.8,29.85,WSW,241,26.0,26.0,77,0.00,CLR,,0.18,WeatherDisplay:10.37,2013-12-22 19:58:00,
2013-12-22 15:03:00,59.0,51.8,29.85,WSW,238,23.0,23.0,77,0.00,CLR,,0.18,WeatherDisplay:10.37,2013-12-22 20:03:00,
2013-12-22 15:08:00,59.0,51.8,29.85,WSW,250,23.0,23.0,77,0.00,CLR,,0.18,WeatherDisplay:10.37,2013-12-22 20:08:00,
2013-12-22 15:13:00,59.0,51.8,29.85,WSW,237,21.0,21.0,77,0.00,CLR,,0.18,WeatherDisplay:10.37,2013-12-22 20:13:00,
2013-12-22 15:18:00,59.0,51.8,29.85,SW,221,21.9,21.9,77,0.00,CLR,,0.18,WeatherDisplay:10.37,2013-12-22 20:18:00,
2013-12-22 15:23:00,59.0,51.8,29.85,WSW,238,23.0,23.0,77,0.00,CLR,,0.18,WeatherDisplay:10.37,2013-12-22 20:23:00,
2013-12-22 15:28:00,59.0,51.8,29.85,SW,230,26.5,26.5,77,0.00,CLR,,0.18,WeatherDisplay:10.37,2013-12-22 20:28:00,
2013-12-22 15:33:00,59.0,51.8,29.86,WSW,238,25.3,25.3,77,0.00,CLR,,0.18,WeatherDisplay:10.37,2013-12-22 20:33:00,
2013-12-22 15:38:00,59.0,51.8,29.86,WSW,244,26.5,26.5,77,0.00,CLR,,0.18,WeatherDisplay:10.37,2013-12-22 20:38:00,
2013-12-22 15:43:00,59.0,51.4,29.86,SW,236,25.3,25.3,76,0.00,CLR,,0.18,WeatherDisplay:10.37,2013-12-22 20:43:00,
2013-12-22 15:48:00,59.0,51.4,29.86,SW,227,20.0,20.0,76,0.00,CLR,,0.18,WeatherDisplay:10.37,2013-12-22 20:48:00,
2013-12-22 15:53:00,59.0,51.4,29.86,SW,218,21.0,21.0,76,0.00,CLR,,0.18,WeatherDisplay:10.37,2013-12-22 20:53:00,
2013-12-22 15:58:00,59.0,51.4,29.86,SW,236,18.4,18.4,76,0.00,CLR,,0.18,WeatherDisplay:10.37,2013-12-22 20:58:00,
2013-12-22 16:03:00,59.0,51.4,29.86,WSW,240,22.0,22.0,76,0.00,CLR,,0.18,WeatherDisplay:10.37,2013-12-22 21:03:00,
2013-12-22 16:08:00,58.9,51.3,29.87,SW,234,24.0,24.0,76,0.00,CLR,,0.18,WeatherDisplay:10.37,2013-12-22 21:08:00,
2013-12-22 16:13:00,59.0,51.4,29.87,SW,232,16.1,16.1,76,0.00,CLR,,0.18,WeatherDisplay:10.37,2013-12-22 21:13:00,
2013-12-22 16:18:00,58.7,51.2,29.87,West,259,19.6,19.6,76,0.00,CLR,,0.18,WeatherDisplay:10.37,2013-12-22 21:18:00,
2013-12-22 16:23:00,58.6,51.1,29.88,WSW,238,19.0,19.0,76,0.00,CLR,,0.18,WeatherDisplay:10.37,2013-12-22 21:23:00,
2013-12-22 16:28:00,58.5,51.0,29.88,SW,236,16.0,16.0,76,0.00,CLR,,0.18,WeatherDisplay:10.37,2013-12-22 21:28:00,
2013-12-22 16:30:00,58.5,51.0,29.88,WSW,238,17.0,17.0,76,0.00,CLR,,0.18,WeatherDisplay:10.37,2013-12-22 21:30:00,
2013-12-22 16:35:00,58.5,51.0,29.89,WSW,238,14.0,14.0,76,0.00,CLR,,0.18,WeatherDisplay:10.37,2013-12-22 21:35:00,
2013-12-22 16:40:00,58.4,50.9,29.89,WSW,243,14.0,14.0,76,0.00,CLR,,0.18,WeatherDisplay:10.37,2013-12-22 21:40:00,
2013-12-22 16:45:00,58.2,51.0,29.89,West,261,21.9,21.9,77,0.00,CLR,,0.18,WeatherDisplay:10.37,2013-12-22 21:45:00,
2013-12-22 16:50:00,58.0,50.8,29.88,WSW,238,20.0,20.0,77,0.00,CLR,,0.18,WeatherDisplay:10.37,2013-12-22 21:50:00,
2013-12-22 16:55:00,57.9,50.4,29.89,WSW,238,16.0,16.0,76,0.00,CLR,,0.18,WeatherDisplay:10.37,2013-12-22 21:55:00,
2013-12-22 17:00:00,57.7,50.2,29.89,WSW,245,19.0,19.0,76,0.00,CLR,,0.18,WeatherDisplay:10.37,2013-12-22 22:00:00,
2013-12-22 17:05:00,57.7,50.2,29.89,West,259,19.6,19.6,76,0.00,CLR,,0.18,WeatherDisplay:10.37,2013-12-22 22:05:00,
2013-12-22 17:10:00,57.6,50.1,29.89,WSW,254,18.4,18.4,76,0.00,CLR,,0.18,WeatherDisplay:10.37,2013-12-22 22:10:00,
2013-12-22 17:15:00,57.4,49.9,29.89,WSW,240,17.3,17.3,76,0.00,CLR,,0.18,WeatherDisplay:10.37,2013-12-22 22:15:00,
2013-12-22 17:20:00,57.3,49.8,29.90,SW,226,17.3,17.3,76,0.00,CLR,,0.18,WeatherDisplay:10.37,2013-12-22 22:20:00,
2013-12-22 17:25:00,57.2,50.1,29.90,SW,219,20.0,20.0,77,0.00,CLR,,0.18,WeatherDisplay:10.37,2013-12-22 22:25:00,
2013-12-22 17:30:00,57.1,49.6,29.91,WSW,254,16.1,16.1,76,0.00,CLR,,0.18,WeatherDisplay:10.37,2013-12-22 22:30:00,
2013-12-22 17:35:00,57.1,49.6,29.91,West,259,19.6,19.6,76,0.00,CLR,,0.18,WeatherDisplay:10.37,2013-12-22 22:35:00,
2013-12-22 17:40:00,57.1,49.6,29.91,SW,223,23.0,23.0,76,0.00,CLR,,0.18,WeatherDisplay:10.37,2013-12-22 22:40:00,
2013-12-22 17:45:00,57.0,49.5,29.91,WSW,240,20.0,20.0,76,0.00,CLR,,0.18,WeatherDisplay:10.37,2013-12-22 22:45:00,
2013-12-22 17:50:00,56.9,49.8,29.92,WSW,238,18.0,18.0,77,0.00,CLR,,0.18,WeatherDisplay:10.37,2013-12-22 22:50:00,
2013-12-22 17:55:00,56.9,49.4,29.92,WSW,241,18.4,18.4,76,0.00,CLR,,0.18,WeatherDisplay:10.37,2013-12-22 22:55:00,
2013-12-22 18:00:00,56.9,49.4,29.92,WSW,240,20.7,20.7,76,0.00,CLR,,0.18,WeatherDisplay:10.37,2013-12-22 23:00:00,
2013-12-22 18:05:00,56.9,49.4,29.92,SW,236,17.0,17.0,76,0.00,CLR,,0.18,WeatherDisplay:10.37,2013-12-22 23:05:00,
2013-12-22 18:10:00,56.7,49.2,29.92,WSW,244,18.4,18.4,76,0.00,CLR,,0.18,WeatherDisplay:10.37,2013-12-22 23:10:00,
2013-12-22 18:15:00,56.6,49.1,29.92,WSW,237,15.0,15.0,76,0.00,CLR,,0.18,WeatherDisplay:10.37,2013-12-22 23:15:00,
2013-12-22 18:20:00,56.6,49.1,29.92,SW,232,14.0,14.0,76,0.00,CLR,,0.18,WeatherDisplay:10.37,2013-12-22 23:20:00,
2013-12-22 18:25:00,56.4,48.9,29.92,WSW,253,18.4,18.4,76,0.00,CLR,,0.18,WeatherDisplay:10.37,2013-12-22 23:25:00,
2013-12-22 18:30:00,56.3,49.2,29.93,WSW,250,16.1,16.1,77,0.00,CLR,,0.18,WeatherDisplay:10.37,2013-12-22 23:30:00,
2013-12-22 18:35:00,56.2,49.1,29.92,SW,236,15.0,15.0,77,0.00,CLR,,0.18,WeatherDisplay:10.37,2013-12-22 23:35:00,
2013-12-22 18:40:00,56.2,49.1,29.92,SW,231,15.0,15.0,77,0.00,CLR,,0.18,WeatherDisplay:10.37,2013-12-22 23:40:00,
2013-12-22 18:45:00,56.2,48.7,29.93,SW,232,13.0,13.0,76,0.00,CLR,,0.18,WeatherDisplay:10.37,2013-12-22 23:45:00,
2013-12-22 18:50:00,56.2,48.7,29.94,WSW,238,15.0,15.0,76,0.00,CLR,,0.18,WeatherDisplay:10.37,2013-12-22 23:50:00,
2013-12-22 18:55:00,56.2,48.7,29.94,SW,227,15.0,15.0,76,0.00,CLR,,0.18,WeatherDisplay:10.37,2013-12-22 23:55:00,
2013-12-22 19:00:00,56.2,48.7,29.94,WSW,238,16.1,16.1,76,0.00,CLR,,0.18,WeatherDisplay:10.37,2013-12-23 00:00:00,
2013-12-22 19:05:00,56.2,48.4,29.94,WSW,238,16.1,16.1,75,0.00,CLR,,0.18,WeatherDisplay:10.37,2013-12-23 00:05:00,
2013-12-22 19:10:00,56.1,48.3,29.94,WSW,240,15.0,15.0,75,0.00,CLR,,0.18,WeatherDisplay:10.37,2013-12-23 00:10:00,
2013-12-22 19:15:00,56.1,48.3,29.94,SW,236,15.0,15.0,75,0.00,CLR,,0.18,WeatherDisplay:10.37,2013-12-23 00:15:00,
2013-12-22 19:20:00,56.0,48.2,29.94,WSW,253,20.7,20.7,75,0.00,CLR,,0.18,WeatherDisplay:10.37,2013-12-23 00:20:00,
2013-12-22 19:25:00,56.0,48.2,29.95,WSW,240,17.3,17.3,75,0.00,CLR,,0.18,WeatherDisplay:10.37,2013-12-23 00:25:00,
2013-12-22 19:30:00,56.1,48.3,29.95,WSW,245,16.1,16.1,75,0.00,CLR,,0.18,WeatherDisplay:10.37,2013-12-23 00:30:00,
2013-12-22 19:35:00,56.1,48.3,29.95,WSW,256,12.0,12.0,75,0.00,CLR,,0.18,WeatherDisplay:10.37,2013-12-23 00:35:00,
2013-12-22 19:40:00,56.0,48.2,29.96,WSW,237,12.0,12.0,75,0.00,CLR,,0.18,WeatherDisplay:10.37,2013-12-23 00:40:00,
2013-12-22 19:45:00,55.9,47.7,29.95,SW,230,16.1,16.1,74,0.00,CLR,,0.18,WeatherDisplay:10.37,2013-12-23 00:45:00,
2013-12-22 19:50:00,55.9,48.1,29.95,SW,225,11.5,11.5,75,0.00,CLR,,0.18,WeatherDisplay:10.37,2013-12-23 00:50:00,
2013-12-22 19:55:00,55.8,48.0,29.95,West,259,10.4,10.4,75,0.00,CLR,,0.18,WeatherDisplay:10.37,2013-12-23 00:55:00,
2013-12-22 20:00:00,55.7,47.9,29.95,WSW,252,13.0,13.0,75,0.00,CLR,,0.18,WeatherDisplay:10.37,2013-12-23 01:00:00,
2013-12-22 20:05:00,55.7,47.9,29.95,WSW,246,8.1,8.1,75,0.00,CLR,,0.18,WeatherDisplay:10.37,2013-12-23 01:05:00,
2013-12-22 20:10:00,55.5,47.7,29.95,WSW,244,10.4,10.4,75,0.00,CLR,,0.18,WeatherDisplay:10.37,2013-12-23 01:10:00,
2013-12-22 20:15:00,55.5,47.7,29.95,SW,230,10.4,10.4,75,0.00,CLR,,0.18,WeatherDisplay:10.37,2013-12-23 01:15:00,
2013-12-22 20:20:00,55.4,47.6,29.95,WSW,253,9.2,9.2,75,0.00,CLR,,0.18,WeatherDisplay:10.37,2013-12-23 01:20:00,
2013-12-22 20:25:00,55.3,47.5,29.95,SW,229,9.0,9.0,75,0.00,CLR,,0.18,WeatherDisplay:10.37,2013-12-23 01:25:00,
2013-12-22 20:30:00,55.3,47.9,29.95,SW,227,10.4,10.4,76,0.00,CLR,,0.18,WeatherDisplay:10.37,2013-12-23 01:30:00,
2013-12-22 20:35:00,55.2,47.8,29.95,SW,232,10.4,10.4,76,0.00,CLR,,0.18,WeatherDisplay:10.37,2013-12-23 01:35:00,
2013-12-22 20:40:00,55.2,47.8,29.95,SW,236,9.2,9.2,76,0.00,CLR,,0.18,WeatherDisplay:10.37,2013-12-23 01:40:00,
2013-12-22 20:45:00,55.2,47.8,29.96,WSW,238,10.4,10.4,76,0.00,CLR,,0.18,WeatherDisplay:10.37,2013-12-23 01:45:00,
2013-12-22 20:50:00,55.2,47.8,29.96,SW,232,12.0,12.0,76,0.00,CLR,,0.18,WeatherDisplay:10.37,2013-12-23 01:50:00,
2013-12-22 20:55:00,55.3,47.9,29.96,SW,232,7.0,7.0,76,0.00,CLR,,0.18,WeatherDisplay:10.37,2013-12-23 01:55:00,
2013-12-22 21:00:00,55.2,47.4,29.97,WSW,245,13.0,13.0,75,0.00,CLR,,0.18,WeatherDisplay:10.37,2013-12-23 02:00:00,
2013-12-22 21:05:00,55.3,47.5,29.97,WSW,242,10.4,10.4,75,0.00,CLR,,0.18,WeatherDisplay:10.37,2013-12-23 02:05:00,
2013-12-22 21:10:00,55.3,47.5,29.97,SW,234,9.0,9.0,75,0.00,CLR,,0.18,WeatherDisplay:10.37,2013-12-23 02:10:00,
2013-12-22 21:15:00,55.3,47.5,29.97,WSW,243,9.2,9.2,75,0.00,CLR,,0.18,WeatherDisplay:10.37,2013-12-23 02:15:00,
2013-12-22 21:20:00,55.3,47.5,29.96,SW,233,9.2,9.2,75,0.00,CLR,,0.18,WeatherDisplay:10.37,2013-12-23 02:20:00,
2013-12-22 21:25:00,55.2,47.4,29.97,SW,234,7.0,7.0,75,0.00,CLR,,0.18,WeatherDisplay:10.37,2013-12-23 02:25:00,
2013-12-22 21:30:00,55.2,47.4,29.97,SW,234,11.5,11.5,75,0.00,CLR,,0.18,WeatherDisplay:10.37,2013-12-23 02:30:00,
2013-12-22 21:35:00,55.2,47.4,29.97,WSW,238,9.2,9.2,75,0.00,CLR,,0.18,WeatherDisplay:10.37,2013-12-23 02:35:00,
2013-12-22 21:40:00,55.1,47.3,29.97,WSW,244,13.0,13.0,75,0.00,CLR,,0.18,WeatherDisplay:10.37,2013-12-23 02:40:00,
2013-12-22 21:45:00,55.2,47.4,29.97,SW,234,15.0,15.0,75,0.00,CLR,,0.18,WeatherDisplay:10.37,2013-12-23 02:45:00,
2013-12-22 21:50:00,55.2,47.4,29.98,WSW,239,13.0,13.0,75,0.00,CLR,,0.18,WeatherDisplay:10.37,2013-12-23 02:50:00,
2013-12-22 21:55:00,55.2,47.1,29.98,WSW,245,15.0,15.0,74,0.00,CLR,,0.18,WeatherDisplay:10.37,2013-12-23 02:55:00,
2013-12-22 22:00:00,55.2,47.1,29.98,WSW,242,15.0,15.0,74,0.00,CLR,,0.18,WeatherDisplay:10.37,2013-12-23 03:00:00,
2013-12-22 22:05:00,55.2,47.1,29.99,WSW,246,16.1,16.1,74,0.00,CLR,,0.18,WeatherDisplay:10.37,2013-12-23 03:05:00,
2013-12-22 22:10:00,55.1,47.0,29.99,WSW,252,12.0,12.0,74,0.00,CLR,,0.18,WeatherDisplay:10.37,2013-12-23 03:10:00,
2013-12-22 22:15:00,55.1,47.0,29.99,WSW,249,13.0,13.0,74,0.00,CLR,,0.18,WeatherDisplay:10.37,2013-12-23 03:15:00,
2013-12-22 22:20:00,55.0,46.9,29.99,WSW,257,12.0,12.0,74,0.00,CLR,,0.18,WeatherDisplay:10.37,2013-12-23 03:20:00,
2013-12-22 22:25:00,54.9,46.8,29.99,WSW,258,15.0,15.0,74,0.00,CLR,,0.18,WeatherDisplay:10.37,2013-12-23 03:25:00,
2013-12-22 22:30:00,54.9,46.8,29.99,WSW,245,9.2,9.2,74,0.00,CLR,,0.18,WeatherDisplay:10.37,2013-12-23 03:30:00,
2013-12-22 22:35:00,54.8,46.7,29.98,West,279,11.5,11.5,74,0.00,CLR,,0.18,WeatherDisplay:10.37,2013-12-23 03:35:00,
2013-12-22 22:40:00,54.6,46.5,29.98,WSW,256,11.5,11.5,74,0.00,CLR,,0.18,WeatherDisplay:10.37,2013-12-23 03:40:00,
2013-12-22 22:45:00,54.6,46.5,29.99,West,266,14.0,14.0,74,0.00,CLR,,0.18,WeatherDisplay:10.37,2013-12-23 03:45:00,
2013-12-22 22:50:00,54.6,46.5,29.99,WSW,253,11.0,11.0,74,0.00,CLR,,0.18,WeatherDisplay:10.37,2013-12-23 03:50:00,
2013-12-22 22:55:00,54.5,46.4,29.98,West,262,13.0,13.0,74,0.00,CLR,,0.18,WeatherDisplay:10.37,2013-12-23 03:55:00,
2013-12-22 23:00:00,54.3,46.2,29.98,WSW,244,14.0,14.0,74,0.00,CLR,,0.18,WeatherDisplay:10.37,2013-12-23 04:00:00,
2013-12-22 23:05:00,54.2,45.7,29.98,WSW,244,19.6,19.6,73,0.00,CLR,,0.18,WeatherDisplay:10.37,2013-12-23 04:05:00,
2013-12-22 23:10:00,54.1,45.6,29.98,West,263,12.0,12.0,73,0.00,CLR,,0.18,WeatherDisplay:10.37,2013-12-23 04:10:00,
2013-12-22 23:15:00,54.0,45.5,29.99,West,265,15.0,15.0,73,0.00,CLR,,0.18,WeatherDisplay:10.37,2013-12-23 04:15:00,
2013-12-22 23:20:00,54.0,45.2,29.98,West,272,16.1,16.1,72,0.00,CLR,,0.18,WeatherDisplay:10.37,2013-12-23 04:20:00,
2013-12-22 23:25:00,53.9,45.1,29.98,West,260,16.1,16.1,72,0.00,CLR,,0.18,WeatherDisplay:10.37,2013-12-23 04:25:00,
2013-12-22 23:30:00,53.8,45.0,29.98,WSW,254,11.5,11.5,72,0.00,CLR,,0.18,WeatherDisplay:10.37,2013-12-23 04:30:00,
2013-12-22 23:35:00,53.7,44.9,29.98,WNW,283,12.0,12.0,72,0.00,CLR,,0.18,WeatherDisplay:10.37,2013-12-23 04:35:00,
2013-12-22 23:40:00,53.6,45.2,29.99,WSW,253,10.4,10.4,73,0.00,CLR,,0.18,WeatherDisplay:10.37,2013-12-23 04:40:00,
2013-12-22 23:45:00,53.5,45.1,29.98,West,270,7.0,7.0,73,0.00,CLR,,0.18,WeatherDisplay:10.37,2013-12-23 04:45:00,
2013-12-22 23:50:00,53.3,44.9,29.99,West,267,9.2,9.2,73,0.00,CLR,,0.18,WeatherDisplay:10.37,2013-12-23 04:50:00,
2013-12-22 23:55:00,53.3,45.2,30.00,WSW,248,16.0,16.0,74,0.00,CLR,,0.18,WeatherDisplay:10.37,2013-12-23 04:55:00,